Orbital Elements at Epoch 2459000.5 (2020-May-31.0) TDB
Reference: JPL 31 (heliocentric ecliptic J2000)
Element | Value | Uncertainty (1-sigma) | Units |
e | .1751206547106756 | 3.8641e-08 | |
a | 2.232526470081022 | 7.4218e-09 | au |
q | 1.84156497298152 | 8.5228e-08 | au |
i | 3.301810591205045 | 4.2664e-06 | deg |
node | 343.3900056413749 | 7.5337e-05 | deg |
peri | 323.9293353417538 | 7.6963e-05 | deg |
M | 148.3345714823176 | 1.8295e-05 | deg |
tp | 2458498.465881901576 (2019-Jan-14.96588190) | 6.093e-05 | TDB |
period | 1218.40971197316 3.34 | 6.0757e-06 1.663e-08 | d yr |
n | .2954671129607102 | 1.4734e-09 | deg/d |
Q | 2.623487967180524 | 8.7215e-09 | au |
|
| | Orbit Determination Parameters
Additional Information
|